Preview of NWS' New Version of Forecast
This preview is not operational and should not be used for support decisions.

Regional Weather Roundup (RWR)

Issued by National Weather Service (NWS)

                            
000
ASUS45 KABQ 180901
RWRNM 
NEW MEXICO REGIONAL WEATHER ROUNDUP
NATIONAL WEATHER SERVICE ALBUQUERQUE NM
200 AM MST MON FEB 18 2019

NOTE: "FAIR" MEANS FEW OR NO CLOUDS BELOW 12,000 FEET AGL WITH NO
       SIGNIFICANT WEATHER OR OBSTRUCTIONS TO VISION.

      THIS PRODUCT IS RELEASED AS TWO VERSIONS.  ONE VERSION NEAR
      THE TOP OF THE HOUR CONTAINING PRELIMINARY DATA FROM ALBUQUERQUE
      AND OTHER STATIONS.  A FINAL VERSION WITH ADDITIONAL DATA IS 
      ISSUED ABOUT 10 MINUTES AFTER THE HOUR.
 
NMZ501-503-504-510>518-181000-
NORTHWEST PLATEAU/NORTHCENTRAL MOUNTAINS
  
CITY           SKY/WX    TMP DP  RH WIND       PRES   REMARKS
FARMINGTON     FLURRIES  26  23  88 E5        29.88S WCI  20          
LOS ALAMOS     LGT SNOW  22  20  90 S5        29.92S WCI  16          
SANTA FE       LGT SNOW  23  22  96 SW3       29.94S VSB 1            
TAOS           FLURRIES  21  18  88 SW3       29.93F                  
ANGEL FIRE       N/A     13  10  87 CALM      29.88F                  

$$
NMZ402-403-502-505>509-181000-
WESTCENTRAL MOUNTAINS/SOUTHWEST MOUNTAINS
  
CITY           SKY/WX    TMP DP  RH WIND       PRES   REMARKS
GALLUP         MOCLDY    24  21  88 SW8       29.89S WCI  15          
GRANTS         FAIR      22  18  85 S6        29.93S WCI  14          
SILVER CITY    FAIR      24  17  74 N8        29.96S WCI  15          

$$
NMZ407-409-411-412-181000-
SOUTHERN DESERTS
  
CITY           SKY/WX    TMP DP  RH WIND       PRES   REMARKS
DEMING         FAIR      28  16  60 W7        29.98F WCI  21          
LAS CRUCES     FAIR      29  12  50 N3        29.99S                  
ALAMOGORDO     FAIR      32   7  34 MISG      30.00S                  
T OR C         FAIR      33  13  43 W6        29.96S WCI  28          

$$
NMZ519>523-181000-
CENTRAL VALLEYS/CENTRAL HIGHLANDS
  
CITY           SKY/WX    TMP DP  RH WIND       PRES   REMARKS
ALBUQUERQUE    FAIR      27  18  69 E7        29.96S WCI  19          
DOUBLE EAGLE   FAIR      17  15  90 SW7       29.95S WCI   8          
CLINES CORNERS FAIR      19  13  77 W10       29.93S WCI   7          
BELEN          FAIR      27  19  71 NE3       29.96S                  
SOCORRO        FAIR      27  12  53 CALM      29.96F                  

$$
NMZ524>526-539-540-181000-
SOUTHCENTRAL MOUNTAINS
  
CITY           SKY/WX    TMP DP  RH WIND       PRES   REMARKS
RUIDOSO        NOT AVBL                                               

$$
NMZ527>531-181000-
NORTHEAST HIGHLANDS/NORTHEAST PLAINS
  
CITY           SKY/WX    TMP DP  RH WIND       PRES   REMARKS
LAS VEGAS      FAIR      15  13  91 S10       29.92S WCI   2          
RATON          LGT SNOW  20  14  77 NE10      29.94R WCI   9          
CLAYTON        LGT SNOW  15  12  88 NE16      30.09R VSB 1   WCI  -1  

$$
NMZ532>537-181000-
EASTCENTRAL PLAINS
  
CITY           SKY/WX    TMP DP  RH WIND       PRES   REMARKS
SANTA ROSA     FAIR      25  11  55 SE9       29.97S WCI  15          
TUCUMCARI      FAIR      35  20  54 SE14G28   30.00S WCI  26          
CANNON AFB     NOT AVBL                                               
CLOVIS AIRPORT FAIR      26  19  74 E8        30.05R WCI  18          

$$
NMZ028-029-538-181000-
SOUTHEAST PLAINS
  
CITY           SKY/WX    TMP DP  RH WIND       PRES   REMARKS
ROSWELL        FAIR      32   5  32 W5        29.99R WCI  27          
ARTESIA        FAIR      30   3  31 S5        30.01S WCI  25          
CARLSBAD       FAIR      31  11  43 S5        30.00R WCI  26          
HOBBS          FAIR      30  21  69 E5        30.04R WCI  25          


$$